STARLINK-1086 (44964 NORAD) Tracking and Keplerian Element Data

This shows tracking and keplerian element data for the satellite.

Feedback or suggestion? Click here.




ElementValue
Catalog44964
NameSTARLINK-1086
Epoch Orbit162
Epoch Day93.91667824
Epoch Year2020
RAAN326.4137
Inclination53.0004
Eccentricity0.0001438
Argument of Perigee63.0377
Mean Anonmoly109.7422
Mean Motion15.62760554
Decay Rate-0.00016478
L11 44964U 20001BC 20093.91667824 -.00016478 00000-0 -17442-3 0 9996
L22 44964 53.0004 326.4137 0001438 63.0377 109.7422 15.62760554 1624

Live tracking and technical data element details for STARLINK-1086 (NORAD 44964). STARLINK-1086 can be tracked NOW for your location showing map with azimuth and elevation plus other details from your city location.

Track the satellite on the map from your city or location and see movement details for azimuth, elevation, latitude, longitude, range, height, and movement on the map or in text.







IsCatalogInMostPopularTable: catalog: 44964, numindb: 23
Update: records affected: 1



GetName: 44964 STARLINK-1086

Hit Count: updated at: Mon, 06 Apr 2020 14:43:08 GMT